Angleton, TX

3:06 AM CDT on October 19, 2019 (GMT -0500)
Brazoria County

Weather History for KLBX - June, 2019

Change the Weather History Date:

Sunday, June 2, 2019

  Actual Average Record
Temperature  
Mean Temperature 81 °F -  
Max Temperature 91 °F 86 °F 97 °F (2011)
Min Temperature 71 °F 69 °F 64 °F (1997)
Cooling Degree Days 16    
Growing Degree Days 31 (Base 50)    
Moisture  
Dew Point 72 °F    
Average Humidity 84    
Maximum Humidity 100    
Minimum Humidity 55    
Precipitation  
Precipitation 0.00 in - - ()
Sea Level Pressure  
Sea Level Pressure 29.91 in    
Wind  
Wind Speed 2 mph (East)    
Max Wind Speed 10 mph    
Max Gust Speed -    
Visibility 6 miles    
Events      
Averages and records for this station are not official NWS values.
T = Trace of Precipitation, MM = Missing Value Source: NWS Daily Summary

Daily Weather History Graph

Daily Weather History Graph

Search for Another Location

Airport or City:

Astronomy

Jun. 02, 2019 Rise Set
Actual Time 6:23 AM CDT 8:16 PM CDT
Civil Twilight 5:56 AM CDT 8:43 PM CDT
Nautical Twilight 5:24 AM CDT 9:15 PM CDT
Astronomical Twilight 4:49 AM CDT 9:50 PM CDT
Moon 5:54 AM CDT (6/2) 7:42 PM CDT (6/2)
Length of Visible Light 14h 47m
Length of Day
13h 53m
Waning Crescent, 1% of the Moon is Illuminated
Jun 2
Waning Crescent
Jun 3
New
Jun 10
First Quarter
Jun 17
Full
Jun 25
Last Quarter

Hourly Weather History & Observations

Time (CDT) Temp. Heat Index Dew Point Humidity Pressure Visibility Wind Dir Wind Speed Gust Speed Precip Events Conditions
12:53 AM 75.0 °F - 73.0 °F 94% 29.92 in 9.0 mi Calm Calm - N/A   Clear
1:53 AM 73.9 °F - 72.0 °F 93% 29.91 in 4.0 mi Calm Calm - N/A   Clear
2:41 AM 73.0 °F - 71.1 °F 93% 29.90 in 1.8 mi Calm Calm - N/A   Clear
2:53 AM 73.0 °F - 71.1 °F 93% 29.90 in 0.8 mi Calm Calm - N/A   Clear
2:59 AM 73.0 °F - 72.0 °F 96% 29.89 in 1.0 mi Calm Calm - N/A   Mist
3:06 AM 73.0 °F - 71.1 °F 93% 29.89 in 2.0 mi Calm Calm - N/A   Partly Cloudy
3:14 AM 73.0 °F - 71.1 °F 93% 29.89 in 7.0 mi North 3.5 mph - N/A   Clear
3:53 AM 73.9 °F - 72.0 °F 93% 29.88 in 8.0 mi Calm Calm - N/A   Partly Cloudy
4:06 AM 73.9 °F - 72.0 °F 93% 29.88 in 1.5 mi Calm Calm - N/A   Partly Cloudy
4:16 AM 73.0 °F - 71.1 °F 93% 29.88 in 3.0 mi Calm Calm - N/A   Partly Cloudy
4:21 AM 73.0 °F - 71.1 °F 93% 29.88 in 1.5 mi North 3.5 mph - N/A   Scattered Clouds
4:23 AM 72.0 °F - 70.0 °F 93% 29.88 in 0.8 mi North 3.5 mph - N/A   Mostly Cloudy
4:39 AM 72.0 °F - 70.0 °F 93% 29.88 in 1.0 mi NNE 3.5 mph - N/A   Mostly Cloudy
4:45 AM 72.0 °F - 70.0 °F 93% 29.89 in 3.0 mi North 4.6 mph - N/A   Mostly Cloudy
4:49 AM 71.6 °F - 71.6 °F 100% 29.89 in 1.8 mi North 5.8 mph - N/A   Mostly Cloudy
4:53 AM 73.0 °F - 71.1 °F 93% 29.89 in 1.2 mi North 4.6 mph - N/A   Scattered Clouds
5:00 AM 73.0 °F - 72.0 °F 96% 29.90 in 3.0 mi NNE 3.5 mph - N/A   Partly Cloudy
5:13 AM 73.0 °F - 72.0 °F 96% 29.90 in 2.5 mi NNE 3.5 mph - N/A   Partly Cloudy
5:21 AM 73.0 °F - 72.0 °F 96% 29.90 in 5.0 mi North 3.5 mph - N/A   Scattered Clouds
5:53 AM 73.0 °F - 72.0 °F 96% 29.91 in 6.0 mi North 3.5 mph - N/A   Partly Cloudy
6:53 AM 73.9 °F - 72.0 °F 93% 29.93 in 4.0 mi North 4.6 mph - N/A   Partly Cloudy
7:53 AM 77.0 °F - 75.9 °F 96% 29.94 in 8.0 mi Calm Calm - N/A   Clear
8:53 AM 81.0 °F 87.3 °F 75.9 °F 85% 29.94 in 10.0 mi East 3.5 mph - N/A   Clear
9:53 AM 84.0 °F 91.9 °F 75.0 °F 74% 29.95 in 10.0 mi East 4.6 mph - N/A   Partly Cloudy
10:53 AM 84.9 °F 91.4 °F 73.0 °F 67% 29.96 in 10.0 mi Calm Calm - N/A   Clear
11:53 AM 87.1 °F 94.5 °F 73.0 °F 63% 29.96 in 10.0 mi SSW 4.6 mph - N/A   Scattered Clouds
12:53 PM 89.1 °F 96.0 °F 72.0 °F 57% 29.95 in 10.0 mi SSE 6.9 mph - N/A   Mostly Cloudy
1:53 PM 88.0 °F 94.7 °F 72.0 °F 59% 29.94 in 10.0 mi SE 5.8 mph - N/A   Mostly Cloudy
2:53 PM 91.0 °F 99.3 °F 73.0 °F 55% 29.91 in 10.0 mi SSE 8.1 mph - N/A   Partly Cloudy
3:53 PM 89.1 °F 96.0 °F 72.0 °F 57% 29.90 in 10.0 mi SSE 10.4 mph - N/A   Partly Cloudy
4:53 PM 88.0 °F 95.6 °F 73.0 °F 61% 29.89 in 10.0 mi South 9.2 mph - N/A   Clear
5:53 PM 87.1 °F 95.4 °F 73.9 °F 65% 29.88 in 10.0 mi SSE 10.4 mph - N/A   Clear
6:53 PM 86.0 °F 93.0 °F 73.0 °F 65% 29.89 in 10.0 mi SSE 8.1 mph - N/A   Clear
7:53 PM 82.0 °F 87.4 °F 73.0 °F 74% 29.91 in 10.0 mi SSE 6.9 mph - N/A   Clear
8:53 PM 79.0 °F - 73.0 °F 82% 29.91 in 10.0 mi SSE 5.8 mph - N/A   Clear
9:53 PM 77.0 °F - 73.0 °F 88% 29.91 in 10.0 mi South 3.5 mph - N/A   Clear
10:53 PM 77.0 °F - 73.9 °F 90% 29.92 in 10.0 mi South 3.5 mph - N/A   Clear
11:53 PM 79.0 °F - 73.9 °F 84% 29.92 in 10.0 mi SSW 3.5 mph - N/A   Clear